Tracking 30692 objects as of 16-Jun-2025
HD Live streaming from Space Station
objects crossing your sky now

STARLINK-5034

Track STARLINK-5034 now!
10-day predictions
STARLINK-5034 is classified as:


NORAD ID: 53888
Int'l Code: 2022-119C
Perigee: 545.8 km
Apogee: 548.0 km
Inclination: 53.2 °
Period: 95.4 minutes
Semi major axis: 6917 km
RCS: Unknown
Launch date: September 24, 2022
Source: United States (US)
Launch site: AIR FORCE EASTERN TEST RANGE (AFETR)
Your satellite tracking list
Your tracking list is empty




NASA's NSSDC Master Catalog

Two Line Element Set (TLE):
1 53888U 22119C   25167.48252275  .00000784  00000-0  67327-4 0  9991
2 53888  53.2185  79.3608 0001616  88.1053 272.0124 15.08842052151493
Source of the keplerian elements: AFSPC